Location: Mascot Post Office (historical)
(40.2645°N, 99.5462°W)
Time: 17:16:48
(UTC+00:00)

CZ-2D R/B - Pass Details

Date: 14 July 2020
Orbit: 792 x 845 km, 98.7° (Epoch: 05 August)

Event Time Altitude Azimuth Distance (km) Brightness Sun altitude
Rises 07:26:29 0° 24° (NNE) 3,352 6.5 -27.4°
Reaches altitude 10° 07:29:06 10° 35° (NE) 2,424 5.4 -27.3°
Maximum altitude 07:33:49 31° 96° (E) 1,423 3.4 -27.1°
Enters shadow 07:34:24 30° 109° (ESE) 1,445 3.3 -27.0°
